STARLINK-5983, 57224

Orbit data source: Space-Track

STARLINK-5983, 57224 is a payload satellite owned by SpaceX/Seattle (US) in LEO that was launched on Fri, 07 Jul 2023 UTC via an FALCON 9 launch vehicle from the Air Force Western Test Range (AFWTR). Payload-class satellites include a variety of spacecraft equipped with specific instruments for various scientific and technological missions. These include communications satellites like Starlink; space stations such as the ISS; scientific satellites like the Hubble; Earth observation satellites from companies like Planet Labs, Umbra, and HawkEye 360; GPS; miniature CubeSats for education and research; and military/defense satellites.

Loading next visibility...
Identifier
57224, 2023-094G
Orbit
LEO
Country
Flag of USUS
Related business
Manufacturer
SpaceX/Seattle
Mission
Operational Commercial Communications
Bus & Motor
STARLINK, Unknown motor
Mass
305 kg wet, ~290 kg dry
Launch date (UTC)
2023-07-07 (3 years ago)
Launch vehicle
FALCON 9
Launch site
Air Force Western Test Range (AFWTR)
Object type
Payload
Rocket body
Debris
Shape & HBR
Box + 1 Pan, 10.1 m
Radar Cross Section
11.087 m², Large (>1 m²)

Expand to show TLE details & history
Last TLE update: 9 hours ago

TLE from 9 hours ago
0 STARLINK-5983
1 57224U 23094G   26167.78413035  .00000055  00000-0  11511-4 0  9994
2 57224  43.0017 190.8342 0001442 276.8432  83.2256 15.27576890162271
Epoch: 2026-06-16T18:49Z
TLE epoch observation values (Epoch: 2026-06-16T18:49:08.862Z)
Latitude
0.00002°
Longitude
3.4961°
Altitude
482.717 km
Speed
7.626 km/s
True Right ascension
12h 43m 20s
True Declination
0° 00' 00"
Sunlit
Object was in daylight at epoch
Visualization orbit readout
Latitude
Unknown
Longitude
Unknown
Altitude
Unknown
Speed
Unknown
Apparent Right ascension
Unknown
Apparent Declination
Unknown
Sunlit
N/A
Visualization observer readout
Local Sidereal Time
14:33:18
Azimuth
Unknown
Elevation
Unknown
Doppler factor
Unknown
Orbital elements
Apogee altitude
485.993 km
Perigee altitude
484.014 km
Semi-major axis
6,863.14 km
Eccentricity
0.00014
Inclination
43.0017°
RAAN
190.8342°
Arg. of periapsis
276.8432°
True anomaly
83.24201°
Mean anomaly
83.2256°
Eccentric anomaly
83.2338°
Mean motion
3.81732 °/min
Orbital period
94.31 mins
BSTAR
0.000011511
Loading maneuver chart data...
Computing Atmospheric mass density...
Loading historical data...
Loading historical data...
Loading historical data...
Loading historical data...
Loading historical data...
Loading historical data...
Loading historical data...

Documentation

Showing up to 5 results
|